Regional Weather Roundup
Issued by NWS

Home | Current Version | Previous Version | Graphics & Text | Print | Product List | Glossary On
Versions: 1 2 3 4 5 6 7 8 9 10 11 12 13 14 15 16 17 18 19 20 21 22 23 24 25 26 27 28 29 30 31 32 33 34 35 36 37 38 39 40 41 42 43 44 45 46 47 48 49 50
000
ASUS45 KABQ 110410
RWRNM
WEATHER ROUNDUP FOR NEW MEXICO
NATIONAL WEATHER SERVICE ALBUQUERQUE NM
1000 PM MDT THU JUL 10 2014

NOTE: "FAIR" MEANS FEW OR NO CLOUDS BELOW 12,000 FEET AGL WITH NO
       SIGNIFICANT WEATHER OR OBSTRUCTIONS TO VISION.

      THIS PRODUCT IS RELEASED AS TWO VERSIONS.  ONE VERSION NEAR
      THE TOP OF THE HOUR CONTAINING PRELIMINARY DATA FROM ALBUQUERQUE
      AND OTHER STATIONS.  A FINAL VERSION WITH ADDITIONAL DATA IS
      ISSUED ABOUT 10 MINUTES AFTER THE HOUR.

NMZ501-503-504-510>518-110500-
NORTHWEST PLATEAU/NORTHCENTRAL MOUNTAINS

CITY           SKY/WX    TMP DP  RH WIND       PRES   REMARKS
FARMINGTON     PTCLDY    83  44  25 SW5       30.06R
LOS ALAMOS     MOCLDY    69  48  46 S9        30.25R
SANTA FE       PTCLDY    73  49  42 SW6       30.18R
TAOS             N/A    N/A N/A N/A MISG        N/A
ANGEL FIRE     FAIR      54  48  80 CALM      30.35R

$$
NMZ402-403-502-505>509-110500-
WESTCENTRAL MOUNTAINS/SOUTHWEST MOUNTAINS

CITY           SKY/WX    TMP DP  RH WIND       PRES   REMARKS
GALLUP         LGT RAIN  73  50  44 CALM      30.22R
GRANTS         MOCLDY    68  51  55 NW6       30.24S
SILVER CITY    MOCLDY    79  46  31 MISG      30.14R

$$
NMZ407-409-411-412-110500-
SOUTHERN DESERTS

CITY           SKY/WX    TMP DP  RH WIND       PRES   REMARKS
LORDSBURG      TSTM      79  54  41 W7G20     30.02R
DEMING         LGT RAIN  83  55  38 CALM      30.01R
LAS CRUCES     PTCLDY    85  49  29 E10       30.04R
HOLLOMAN AFB   PTCLDY    83  47  28 SE2       30.01R
ALAMOGORDO     PTCLDY    79  45  29 N3        30.03R
T OR C         CLOUDY    81  54  39 N8        30.08R

$$
NMZ519>523-110500-
CENTRAL VALLEYS/CENTRAL HIGHLANDS

CITY           SKY/WX    TMP DP  RH WIND       PRES   REMARKS
ALBUQUERQUE    MOCLDY    77  51  40 S10       30.13R
DOUBLE EAGLE   PTCLDY    72  55  56 S10       30.16R
MORIARTY ARPT  FAIR      65  53  65 CALM      30.20R
CLINES CORNERS PTCLDY    66  48  52 SW8       30.24R
BELEN          FAIR      74  52  46 W3        30.11R
SOCORRO        FAIR      78  51  38 N5        30.09R

$$
NMZ524>526-539-540-110500-
SOUTHCENTRAL MOUNTAINS

CITY           SKY/WX    TMP DP  RH WIND       PRES   REMARKS
RUIDOSO        PTCLDY    64  50  59 S6        30.28R

$$
NMZ527>531-110500-
NORTHEAST HIGHLANDS/NORTHEAST PLAINS

CITY           SKY/WX    TMP DP  RH WIND       PRES   REMARKS
LAS VEGAS      PTCLDY    64  51  62 S9        30.23R
RATON            N/A    N/A N/A N/A MISG      30.16R
CLAYTON        CLEAR     78  44  29 S15       30.09R

$$
NMZ532>537-110500-
EASTCENTRAL PLAINS

CITY           SKY/WX    TMP DP  RH WIND       PRES   REMARKS
TUCUMCARI      CLEAR     83  49  30 S16       30.03R
CANNON AFB     CLEAR     74  51  44 S9        30.10R
CLOVIS AIRPORT NOT AVBL

$$
NMZ028-029-538-110500-
SOUTHEAST PLAINS

CITY           SKY/WX    TMP DP  RH WIND       PRES   REMARKS
ROSWELL        PTCLDY    83  49  30 SE12      30.02R
ARTESIA        CLEAR     82  50  32 SE16G22   30.03R
CARLSBAD       CLEAR     84  52  33 SE15      30.02R
HOBBS          CLEAR     79  52  38 SE12      30.09R


$$


USA.gov is the U.S. government's official web portal to all federal, state and local government web resources and services.